[[{"header":{"parameterUnit":"m.s-1","parameterCategory":1,"la1":30.2991,"la2":30.254,"lo1":-89.0895,"lo2":-89.0444,"dy":0.0017,"dx":0.0017,"nx":28,"ny":28,"refTime":"2024-12-16T03:00:00:Z","depth":0,"parameterNumber":2,"parameterNumberName":"U-component_of_WINDS"},"data":[0,0,0,0,0,0,0,0,0,0,0,0,0,0,0,0,0,0,0,0,0,0,0,0,0,0,0,0,0,0,0,0,0,0,0,0,0,0,0,0,0,0,0,0,0,0,0,0,0,0,0,0,0,0,0,0,0,0,-3.3429,-3.3429,0,-3.3424,-3.3424,-3.3424,-3.3357,-3.3355,-3.3353,-3.3352,-3.3348,-3.3349,-3.3351,0,0,0,0,0,0,0,0,0,0,0,0,0,-3.3381,-3.3383,-3.3429,-3.3429,-3.3429,-3.3424,-3.3424,-3.3424,-3.3357,-3.3355,-3.3353,-3.3351,-3.3347,-3.3349,-3.3351,0,0,0,0,0,0,0,0,0,0,0,0,0,-3.3392,-3.3383,-3.3429,-3.3395,-3.3392,-3.3424,-3.3424,-3.3424,-3.3357,-3.3355,-3.3352,-3.335,-3.3347,-3.3349,-3.3351,-3.3416,0,0,-3.3358,-3.3359,0,0,0,0,0,0,0,0,-3.3391,-3.3394,-3.34,-3.3397,-3.3394,-3.3388,-3.3406,-3.3421,-3.3358,-3.337,-3.3352,-3.3349,-3.3363,-3.3364,-3.3369,-3.3416,-3.3416,-3.3358,-3.3359,-3.336,-3.3361,0,0,0,0,0,0,0,-3.3391,-3.3394,-3.3427,-3.34,-3.3396,-3.338,-3.3379,-3.3409,-3.3381,-3.3369,-3.3364,-3.3365,-3.3361,-3.3367,-3.3368,-3.3416,-3.3358,-3.336,-3.3361,-3.3362,-3.3518,-3.352,0,0,0,0,0,0,-3.3395,-3.3393,-3.3427,-3.3427,-3.3386,-3.3383,-3.3382,-3.3393,-3.3381,-3.3377,-3.3367,-3.3361,-3.3364,-3.3366,-3.3368,-3.3444,-3.336,-3.3362,-3.3364,-3.3515,-3.3518,-3.3521,0,0,0,0,0,0,-3.3394,-3.3398,-3.3427,-3.3409,-3.3411,-3.3387,-3.34,-3.3394,-3.3399,-3.3379,-3.3374,-3.3377,-3.3362,-3.3365,-3.3405,-3.3443,-3.3363,-3.3365,-3.3512,-3.3516,-3.352,-3.3596,0,0,0,0,0,0,-3.3393,-3.3398,-3.3422,-3.341,-3.3413,-3.3464,-3.3402,-3.3396,-3.3403,-3.3396,-3.3388,-3.3384,-3.336,-3.3402,-3.3407,-3.3444,-3.3367,-3.3508,-3.3513,-3.3518,-3.359,-3.3602,-3.3613,0,0,0,0,0,-3.3391,-3.3444,-3.3424,-3.3428,-3.3442,-3.3466,-3.3468,-3.344,-3.3407,-3.3431,-3.3418,-3.3384,-3.3438,-3.3407,-3.3412,-3.345,-3.3505,-3.3512,-3.3518,-3.3585,-3.36,-3.3613,0,0,0,0,0,0,-3.3461,-3.3442,-3.3419,-3.3469,-3.347,-3.3455,-3.3484,-3.3456,-3.3467,-3.346,-3.3425,-3.3423,-3.3469,-3.3464,-3.3429,-3.3514,-3.3466,-3.3474,-3.3515,-3.3529,-3.354,-3.354,-3.3369,0,0,0,0,0,-3.3483,-3.3504,-3.3485,-3.3532,-3.3533,-3.3509,-3.3519,-3.3497,-3.3496,-3.3496,-3.3486,-3.3488,-3.3505,-3.3517,-3.3531,-3.359,-3.3587,-3.3619,-3.363,-3.364,-3.3646,-3.3677,-3.3691,-3.3542,-3.3542,-3.3542,0,0,-3.3527,-3.3519,-3.3534,-3.3545,-3.3543,-3.3567,-3.351,-3.3536,-3.3553,-3.3501,-3.3538,-3.3531,-3.353,-3.358,-3.3601,-3.3577,-3.3687,-3.3648,-3.3655,-3.3657,-3.3685,-3.3699,-3.3712,-3.3546,-3.3545,-3.3545,0,0,-3.3618,-3.3615,-3.3652,-3.3652,-3.365,-3.3634,-3.3644,-3.3633,-3.3626,-3.3663,-3.3625,-3.3645,-3.3675,-3.3676,-3.3681,-3.3776,-3.3745,-3.3782,-3.3841,-3.3871,-3.3883,-3.3893,-3.3927,-3.394,-3.3789,-3.3789,-3.3789,0,-3.3673,-3.3706,-3.3676,-3.3705,-3.3712,-3.3666,-3.3705,-3.3706,-3.3709,-3.3715,-3.3688,-3.3725,-3.3722,-3.3771,-3.3794,-3.38,-3.381,-3.3782,-3.3884,-3.3894,-3.3903,-3.3935,-3.3948,-3.3793,-3.3793,-3.3792,-3.3792,0,-3.3774,-3.3797,-3.3828,-3.3833,-3.3843,-3.3877,-3.3853,-3.3867,-3.3845,-3.3833,-3.3872,-3.3866,-3.3879,-3.3889,-3.3868,-3.3936,-3.3921,-3.389,-3.3841,-3.3922,-3.3951,-3.3963,-3.38,-3.3798,-3.3797,-3.3796,0,0,-3.3907,-3.3896,-3.3908,-3.3909,-3.3905,-3.3923,-3.3956,-3.3968,-3.3981,-3.3986,-3.4013,-3.404,-3.4012,-3.4017,-3.3996,-3.4023,-3.4099,-3.3988,-3.3987,-3.4009,-3.4174,-3.4197,-3.4212,-3.4079,-3.4081,-3.4083,-3.4174,0,-3.3996,-3.405,-3.4025,-3.4082,-3.4104,-3.4062,-3.409,-3.4091,-3.4081,-3.4098,-3.4087,-3.4107,-3.4067,-3.4071,-3.4096,-3.4084,-3.4132,-3.4078,-3.4104,-3.4105,-3.4104,-3.4227,-3.4251,-3.4337,-3.4185,-3.4187,-3.4189,0,-3.4105,-3.4114,-3.4174,-3.4167,-3.4175,-3.4201,-3.4211,-3.4229,-3.4229,-3.422,-3.4227,-3.4201,-3.4233,-3.4186,-3.423,-3.4194,-3.4204,-3.4201,-3.4203,-3.4204,-3.4151,-3.423,-3.4364,-3.4377,-3.4206,-3.4205,-3.4204,0,-3.4196,-3.4224,-3.4263,-3.4266,-3.4259,-3.4278,-3.4276,-3.4274,-3.4284,-3.4294,-3.43,-3.4313,-3.4321,-3.4332,-3.431,-3.4278,-3.4358,-3.4309,-3.4351,-3.4352,-3.4369,-3.4368,-3.4505,-3.4377,-3.4377,-3.4376,-3.4376,0,-3.4297,-3.4335,-3.4304,-3.4328,-3.437,-3.4342,-3.4384,-3.4378,-3.4377,-3.44,-3.4365,-3.4387,-3.4357,-3.4377,-3.436,-3.44,-3.4404,-3.4397,-3.4392,-3.44,-3.4401,-3.4405,-3.4398,-3.438,-3.4379,-3.4378,-3.4378,0,-3.4405,-3.4386,-3.4426,-3.4416,-3.4415,-3.4446,-3.4438,-3.446,-3.4448,-3.4478,-3.4483,-3.4464,-3.4486,-3.4466,-3.4486,-3.4475,-3.4528,-3.4514,-3.4527,-3.4523,-3.4567,-3.4563,-3.4711,-3.4729,-3.459,-3.4591,-3.4592,0,-3.4469,-3.4498,-3.4491,-3.4504,-3.4504,-3.4525,-3.4535,-3.4509,-3.4521,-3.4525,-3.4548,-3.4566,-3.4579,-3.4616,-3.4605,-3.4621,-3.4607,-3.4658,-3.4609,-3.4616,-3.4607,-3.4605,-3.4608,-3.4667,-3.4669,-3.467,-3.4671,0,-3.4586,-3.4576,-3.4591,-3.4605,-3.4618,-3.4627,-3.4633,-3.4646,-3.4619,-3.4635,-3.4657,-3.4667,-3.4689,-3.4708,-3.472,-3.4719,-3.4691,-3.4687,-3.4698,-3.4705,-3.4711,-3.4708,-3.4554,-3.4684,-3.4682,-3.4681,-3.4681,-3.468,-3.4674,-3.4698,-3.4697,-3.4716,-3.4719,-3.4726,-3.4747,-3.4738,-3.4755,-3.4771,-3.4755,-3.4781,-3.4783,-3.4797,-3.4799,-3.482,-3.4798,-3.4814,-3.4818,-3.4822,-3.4828,-3.4709,-3.4822,-3.4822,-3.4821,-3.4821,-3.4821,0,-3.4789,-3.4787,-3.4805,-3.4815,-3.4831,-3.4804,-3.481,-3.4825,-3.4849,-3.4853,-3.4867,-3.4893,-3.4912,-3.4903,-3.4919,-3.4938,-3.4926,-3.4943,-3.4941,-3.4941,-3.4846,-3.4835,-3.4953,-3.4953,-3.4953,-3.4953,-3.4952,-3.4952,-3.485,-3.4889,-3.4879,-3.4919,-3.4917,-3.4943,-3.4949,-3.4956,-3.4958,-3.4989,-3.5004,-3.4998,-3.4997,-3.5014,-3.5031,-3.5027,-3.5035,-3.5057,-3.5049,-3.4961,-3.4948,-3.4935,-3.4925,-3.5059,-3.5059,-3.5142,-3.5143,-3.5144]},{"header":{"parameterUnit":"m.s-1","parameterCategory":1,"la1":30.2991,"la2":30.254,"lo1":-89.0895,"lo2":-89.0444,"dy":0.0017,"dx":0.0017,"nx":28,"ny":28,"refTime":"2024-12-16T03:00:00:Z","depth":0,"parameterNumber":3,"parameterNumberName":"V-component_of_WINDS"},"data":[0,0,0,0,0,0,0,0,0,0,0,0,0,0,0,0,0,0,0,0,0,0,0,0,0,0,0,0,0,0,0,0,0,0,0,0,0,0,0,0,0,0,0,0,0,0,0,0,0,0,0,0,0,0,0,0,0,0,0.4247,0.4248,0,0.4285,0.4285,0.4285,0.4331,0.4331,0.4332,0.4333,0.4369,0.4369,0.4369,0,0,0,0,0,0,0,0,0,0,0,0,0,0.4216,0.4216,0.4247,0.4248,0.4248,0.4284,0.4285,0.4285,0.433,0.4331,0.4332,0.4333,0.4369,0.4369,0.437,0,0,0,0,0,0,0,0,0,0,0,0,0,0.4239,0.4216,0.4247,0.4275,0.4278,0.4284,0.4285,0.4286,0.433,0.4331,0.4332,0.4333,0.4369,0.4369,0.437,0.4351,0,0,0.4371,0.4371,0,0,0,0,0,0,0,0,0.4237,0.424,0.4271,0.4273,0.4277,0.4304,0.4287,0.4307,0.433,0.431,0.4333,0.4334,0.4346,0.4349,0.4353,0.4353,0.4354,0.4371,0.4371,0.4371,0.4372,0,0,0,0,0,0,0,0.4236,0.4238,0.4262,0.4271,0.4275,0.4286,0.429,0.4291,0.4322,0.4312,0.4316,0.4319,0.4348,0.4353,0.4354,0.4355,0.4371,0.4371,0.4372,0.4372,0.4344,0.4343,0,0,0,0,0,0,0.423,0.4237,0.4261,0.4263,0.4259,0.4286,0.4291,0.4294,0.4322,0.4327,0.4318,0.4321,0.4351,0.4354,0.4356,0.4338,0.4371,0.4372,0.4372,0.4345,0.4343,0.4342,0,0,0,0,0,0,0.4229,0.4232,0.4259,0.4251,0.4255,0.4285,0.4289,0.4294,0.4299,0.4327,0.4332,0.4318,0.4352,0.4355,0.4353,0.434,0.4372,0.4372,0.4346,0.4344,0.4343,0.4301,0,0,0,0,0,0,0.4228,0.4231,0.4224,0.425,0.4256,0.4255,0.4288,0.4294,0.43,0.4304,0.4327,0.4332,0.4353,0.4352,0.4353,0.4341,0.4373,0.4347,0.4345,0.4343,0.4303,0.4298,0.4293,0,0,0,0,0,0.4227,0.421,0.4224,0.4226,0.4248,0.4254,0.4257,0.4283,0.4298,0.4292,0.431,0.4332,0.4341,0.4351,0.4353,0.4341,0.4348,0.4346,0.4344,0.4306,0.4299,0.4293,0,0,0,0,0,0,0.418,0.4214,0.4229,0.422,0.4234,0.4262,0.4255,0.4274,0.4283,0.4287,0.4317,0.4322,0.4316,0.4328,0.4339,0.4326,0.4348,0.4346,0.4318,0.4312,0.4307,0.4305,0.4373,0,0,0,0,0,0.4169,0.4172,0.4201,0.419,0.4197,0.4224,0.4228,0.4247,0.4262,0.4268,0.4286,0.43,0.4306,0.431,0.4317,0.4305,0.4312,0.4298,0.4293,0.4289,0.4287,0.4284,0.4278,0.4335,0.4335,0.4335,0,0,0.4145,0.4164,0.4164,0.4181,0.4194,0.4197,0.4229,0.423,0.4233,0.4268,0.4267,0.4281,0.4299,0.4292,0.429,0.4302,0.4273,0.4286,0.4282,0.4283,0.4281,0.4275,0.4271,0.4333,0.4334,0.4334,0,0,0.4104,0.4118,0.4112,0.4125,0.4145,0.4164,0.4162,0.4188,0.4199,0.4199,0.4226,0.423,0.4239,0.4252,0.4259,0.4225,0.4246,0.4227,0.42,0.4197,0.4193,0.4189,0.4179,0.4174,0.4225,0.4225,0.4225,0,0.4073,0.4078,0.4106,0.4107,0.4114,0.4148,0.4142,0.4153,0.4174,0.4179,0.4192,0.4207,0.422,0.4218,0.4211,0.4215,0.4215,0.4224,0.4191,0.4188,0.4185,0.4175,0.4171,0.4222,0.4223,0.4223,0.4223,0,0.4039,0.4043,0.4035,0.4057,0.4063,0.406,0.4088,0.4092,0.411,0.4128,0.4129,0.4147,0.416,0.416,0.4177,0.4161,0.4168,0.4186,0.4209,0.4176,0.4168,0.4165,0.4219,0.422,0.422,0.4221,0,0,0.3969,0.4007,0.4004,0.4015,0.4041,0.4044,0.4043,0.4057,0.406,0.4073,0.4075,0.4083,0.4101,0.4109,0.4128,0.4125,0.41,0.4143,0.4144,0.4136,0.4085,0.4073,0.4068,0.4113,0.4112,0.4112,0.4084,0,0.3934,0.3936,0.3962,0.3956,0.3961,0.3994,0.3994,0.401,0.4026,0.4033,0.4052,0.4058,0.4079,0.4085,0.4083,0.4103,0.409,0.4105,0.4115,0.4115,0.4111,0.4063,0.405,0.4022,0.4081,0.408,0.408,0,0.3893,0.3906,0.3901,0.3929,0.3932,0.3931,0.3947,0.3953,0.3972,0.3985,0.3995,0.4017,0.402,0.4041,0.4045,0.4055,0.406,0.4071,0.407,0.4073,0.4096,0.4066,0.4014,0.4011,0.4075,0.4075,0.4076,0,0.3845,0.3861,0.3861,0.3869,0.3901,0.39,0.3913,0.3933,0.3941,0.3954,0.3959,0.3972,0.398,0.399,0.4015,0.4028,0.4017,0.404,0.4028,0.4028,0.4025,0.4025,0.3975,0.4027,0.4027,0.4027,0.4027,0,0.3803,0.3799,0.384,0.384,0.3837,0.3868,0.3864,0.388,0.3899,0.3903,0.3931,0.3935,0.3968,0.3975,0.3995,0.3996,0.3999,0.401,0.4015,0.4008,0.4007,0.4013,0.4016,0.4026,0.4026,0.4026,0.4026,0,0.3749,0.3775,0.3778,0.3809,0.3817,0.3813,0.384,0.3841,0.3861,0.3866,0.3869,0.3899,0.3909,0.3936,0.3952,0.3966,0.3962,0.3972,0.3956,0.396,0.3948,0.3949,0.39,0.3896,0.3949,0.3949,0.3948,0,0.3721,0.372,0.3751,0.3756,0.3769,0.3777,0.3785,0.3815,0.3822,0.3845,0.3845,0.3857,0.3869,0.3884,0.3908,0.3921,0.3932,0.3914,0.3934,0.3927,0.3934,0.3934,0.3935,0.391,0.3909,0.3908,0.3908,0,0.367,0.3684,0.3695,0.3711,0.372,0.3734,0.375,0.3752,0.3786,0.3793,0.3805,0.3814,0.3833,0.3845,0.3863,0.3877,0.3898,0.3902,0.39,0.3893,0.3885,0.3891,0.3946,0.3903,0.3903,0.3903,0.3904,0.3904,0.363,0.3631,0.3653,0.3665,0.368,0.3695,0.3699,0.3719,0.373,0.3748,0.3765,0.3775,0.3796,0.3822,0.3834,0.3843,0.3854,0.3851,0.3851,0.385,0.3847,0.3883,0.3846,0.3846,0.3847,0.3847,0.3847,0,0.3582,0.3599,0.3609,0.3631,0.364,0.3661,0.3679,0.3686,0.3695,0.3713,0.3725,0.3739,0.3752,0.3778,0.3793,0.3795,0.3806,0.3799,0.3799,0.3802,0.3836,0.3837,0.379,0.379,0.379,0.379,0.379,0.379,0.3558,0.3561,0.3578,0.359,0.3607,0.3618,0.3627,0.3641,0.3656,0.3671,0.3682,0.3699,0.372,0.3738,0.3751,0.3758,0.3763,0.3753,0.3764,0.3794,0.38,0.3805,0.3806,0.3754,0.3754,0.373,0.373,0.3729]}]]